User: anonymous   Login
Location: Hertford
(51.8000°N, 0.0667°W)
Time: 01:06:34
(UTC+00:00)
Language:

Cosmos 1805 - Orbit

View from above orbital plane
View from above orbital plane
View from above satellite
View from above satellite

Ground track
Ground track

The orbit data is extracted from the following two-line orbital elements,

1 17191U 86097A   20336.40470697 +.00000629 +00000-0 +34108-4 0  9997
2 17191 082.4752 224.2726 0006021 052.7943 307.3836 15.12782691854271
Epoch (UTC): 01 December 2020 09:42:46
Eccentricity: 0.0006021
inclination: 82.4752°
perigee height: 523 km
apogee height: 532 km
right ascension of ascending node: 224.2726°
argument of perigee: 52.7943°
revolutions per day: 15.12782691
mean anomaly at epoch: 307.3836°
orbit number at epoch: 85427

The dashed part of the orbit path shows where the satellite is in the earth's shadow,  

DLR